SUNNYSIDE Weather Reports


time (UTC)temp
F
wind
direction
speed
knots
gust
knots
rain 1hr
in
rain 24hr
in
rain mn
in
humidity
%
barometer
mb
20260901094523 59 198 2.6 7.8 0.00 0.02 0.00 64 978.5
20260901094017 59 232 2.6 7.8 0.00 0.02 0.00 64 978.5
20260901093519 59 234 2.6 7.8 0.00 0.02 0.00 64 978.5
20260901093015 58 234 3.5 7.8 0.00 0.02 0.00 65 978.6
20260901092516 58 222 3.5 6.1 0.00 0.02 0.00 65 978.7
20260901092015 58 225 2.6 10.4 0.00 0.02 0.00 64 978.7
20260901091514 57 233 4.3 10.4 0.00 0.02 0.00 64 978.7
20260901091013 57 240 3.5 8.7 0.00 0.02 0.00 63 978.6
20260901090513 57 242 4.3 8.7 0.00 0.02 0.00 63 978.5
20260901090013 57 236 5.2 8.7 0.00 0.02 0.00 62 978.6
20260901085512 57 225 4.3 7.8 0.00 0.02 0.00 62 978.5
20260901085011 57 240 5.2 8.7 0.00 0.02 0.00 61 978.5
20260901084512 57 238 4.3 7.8 0.00 0.02 0.00 61 978.5
20260901084011 57 244 4.3 9.6 0.00 0.02 0.00 61 978.5
20260901083511 57 234 6.1 11.3 0.00 0.02 0.00 61 978.6
20260901083011 57 234 7.8 11.3 0.00 0.02 0.00 61 978.5
20260901082508 57 227 5.2 11.3 0.00 0.02 0.00 61 978.5
20260901082010 57 225 7.0 9.6 0.00 0.02 0.00 61 978.5
20260901081509 57 236 6.1 10.4 0.00 0.02 0.00 61 978.5
20260901081006 57 240 6.1 10.4 0.00 0.02 0.00 61 978.4
20260901080506 57 248 5.2 9.6 0.00 0.02 0.00 61 978.4
20260901080005 57 231 6.1 9.6 0.00 0.02 0.00 61 978.4
20260901075506 57 242 5.2 10.4 0.00 0.02 0.00 61 978.3
20260901075005 57 242 5.2 9.6 0.00 0.02 0.00 61 978.4
20260901074507 57 224 6.1 9.6 0.00 0.02 0.00 61 978.3
20260901074003 57 254 5.2 9.6 0.00 0.02 0.00 61 978.3
20260901073503 57 360 5.2 9.6 0.00 0.02 0.00 60 978.3
20260901073003 57 360 6.1 11.3 0.00 0.02 0.00 61 978.4
20260901072501 57 244 6.1 11.3 0.00 0.02 0.00 61 978.4
20260901072001 57 242 6.1 12.2 0.00 0.02 0.00 61 978.4
20260901071502 57 240 7.0 12.2 0.00 0.02 0.00 61 978.4
20260901071059 57 360 6.1 10.4 0.00 0.02 0.00 61 978.3
20260901070558 57 234 4.3 10.4 0.00 0.02 0.00 60 978.3
20260901070104 58 233 6.1 10.4 0.00 0.02 0.00 61 978.3
20260901065557 58 248 6.1 9.6 0.00 0.09 0.00 61 978.3
20260901065056 58 244 6.1 8.7 0.00 0.09 0.00 60 978.1
20260901064556 58 227 5.2 8.7 0.00 0.09 0.00 60 978.1
20260901064056 58 229 4.3 9.6 0.00 0.09 0.00 60 978.2
20260901063556 58 360 4.3 9.6 0.00 0.09 0.00 60 978.1
20260901063054 58 242 6.1 8.7 0.00 0.09 0.00 60 978.1
20260901062554 58 242 5.2 10.4 0.00 0.09 0.00 60 978.1
20260901062054 58 360 5.2 10.4 0.00 0.09 0.00 60 978.1
20260901061554 58 247 5.2 8.7 0.00 0.09 0.00 60 978.1
20260901061053 58 238 5.2 9.6 0.00 0.09 0.00 60 978.1
20260901060554 58 252 6.1 9.6 0.00 0.09 0.00 60 977.9
20260901060051 58 360 4.3 8.7 0.00 0.09 0.00 60 977.9
20260901055550 58 360 4.3 7.8 0.00 1.42 0.00 59 977.9
20260901055050 58 245 4.3 7.8 0.00 1.42 0.00 59 977.8
20260901054549 58 244 3.5 7.8 0.00 1.42 0.00 59 977.8
20260901054049 58 245 4.3 10.4 0.00 1.42 0.00 59 977.7
20260901053553 58 236 5.2 10.4 0.00 1.42 0.00 59 977.6
20260901053115 58 242 6.1 8.7 0.00 1.42 0.00 59 977.5
20260901052546 58 233 3.5 7.0 0.00 1.42 0.00 58 977.4
20260901052045 58 248 3.5 7.0 0.00 1.42 0.00 58 977.6
20260901051602 58 240 4.3 8.7 0.00 1.42 0.00 57 977.7
20260901051043 58 236 4.3 8.7 0.00 1.42 0.00 57 977.6
20260901050542 59 235 6.1 8.7 0.00 1.42 0.00 57 977.6
20260901050041 59 242 5.2 8.7 0.00 1.42 0.00 57 977.4
20260901045540 59 239 7.0 8.7 0.00 1.97 0.00 57 977.5
20260901045040 59 244 5.2 7.8 0.00 1.97 0.00 57 977.4
20260901044552 59 239 6.1 9.6 0.00 1.97 0.00 57 977.4
20260901044039 59 240 5.2 9.6 0.00 1.97 0.00 58 977.3
20260901043538 58 229 6.1 8.7 0.00 1.97 0.00 58 977.2
20260901043038 58 233 4.3 7.0 0.00 1.97 0.00 58 977.2
20260901042537 58 236 3.5 6.1 0.00 1.97 0.00 58 977.2
20260901042036 58 226 3.5 6.1 0.00 1.97 0.00 57 977.2
20260901041536 58 224 3.5 7.8 0.00 1.97 0.00 57 977.1
20260901041035 58 237 4.3 8.7 0.00 1.97 0.00 57 977.1
20260901040534 58 230 4.3 7.0 0.00 1.97 0.00 57 977.1
20260901040039 58 221 3.5 7.8 0.00 1.97 0.00 56 977.0
20260901035534 58 236 2.6 7.0 0.00 1.97 0.00 56 977.0
20260901035033 58 227 2.6 5.2 0.00 1.97 0.00 55 977.0
20260901034532 58 217 1.7 5.2 0.00 1.97 0.00 54 976.9
20260901034031 59 229 0.9 6.1 0.00 1.97 0.00 54 976.9
20260901033531 59 239 2.6 6.1 0.00 1.97 0.00 54 977.0
20260901033033 59 236 0.9 4.3 0.00 1.97 0.00 54 976.9
20260901032530 59 223 0.9 2.6 0.00 1.97 0.00 54 976.8
20260901032029 59 223 0.0 4.3 0.00 1.97 0.00 54 976.8
20260901031532 59 219 0.0 4.3 0.00 1.97 0.00 54 976.8
20260901031030 59 225 0.9 5.2 0.00 1.97 0.00 54 976.7
20260901030527 59 228 2.6 5.2 0.00 1.97 0.00 54 976.8
20260901030028 59 224 3.5 6.1 0.00 1.97 0.00 54 976.7
20260901025526 59 229 2.6 5.2 0.00 1.97 0.00 54 976.7
20260901025027 59 233 1.7 5.2 0.00 1.97 0.00 54 976.5
20260901024525 59 225 3.5 5.2 0.00 1.97 0.00 55 976.6
20260901024028 58 236 1.7 4.3 0.00 1.97 0.00 55 976.5
20260901023525 58 237 1.7 4.3 0.00 1.97 0.00 55 976.6
20260901023036 58 240 1.7 4.3 0.00 1.97 0.00 54 976.5
20260901022523 59 234 1.7 4.3 0.00 1.97 0.00 53 976.5
20260901022023 59 240 2.6 5.2 0.00 1.97 0.00 53 976.5
20260901021524 59 237 2.6 5.2 0.00 1.97 0.00 53 976.4
20260901010526 62 360 7.0 10.4 0.00 1.97 0.02 51 975.6
20260901010024 62 360 5.2 12.2 0.00 1.97 0.02 50 975.6
20260901005525 63 244 7.0 12.2 0.00 1.97 0.02 50 975.4
20260901005025 63 218 7.8 13.9 0.00 1.97 0.02 49 975.2
20260901004523 63 240 9.6 13.9 0.00 1.97 0.02 49 975.1
20260901004021 63 232 9.6 13.9 0.00 1.97 0.02 49 975.2
20260901003520 63 234 9.6 15.6 0.01 1.97 0.02 50 975.1
20260901003019 63 234 9.6 15.6 0.02 1.97 0.02 51 974.9
20260831232056 68 232 13.0 20.0 0.00 1.95 1.40 52 973.3
20260831231557 68 229 13.0 27.8 0.00 1.95 1.40 53 973.2
20260831231056 69 269 17.4 28.7 0.00 1.95 1.40 52 973.2
20260831230554 70 234 17.4 28.7 0.00 1.95 1.40 52 973.1
20260831230108 70 218 17.4 25.2 0.00 1.95 1.40 51 972.9
20260831225557 71 240 15.6 26.9 0.00 1.95 1.40 50 972.8
20260831225054 71 229 17.4 26.9 0.00 1.95 1.40 50 972.7
20260831224554 71 226 17.4 28.7 0.00 1.95 1.40 50 972.5
20260831224055 71 218 16.5 28.7 0.00 1.95 1.40 50 972.4
20260831223558 71 239 17.4 26.9 0.00 1.95 1.40 50 972.4
20260831223055 71 245 14.8 24.3 0.00 1.95 1.40 50 972.3
20260831222555 71 215 12.2 24.3 0.00 1.95 1.40 50 972.4
20260831222055 72 292 9.6 33.0 0.00 1.95 1.40 49 972.3
20260831221602 72 214 21.7 33.0 0.00 1.95 1.40 49 972.2
20260831221053 72 224 10.4 28.7 0.00 1.95 1.40 49 972.4
20260831220553 72 208 15.6 26.9 0.00 1.95 1.40 48 972.4
20260831215556 72 235 9.6 22.6 0.00 1.95 1.40 49 972.2
20260831215053 72 219 11.3 22.6 0.00 1.95 1.40 49 972.1
20260831214553 72 227 8.7 26.9 0.00 1.95 1.40 49 971.9
20260831214053 71 249 13.0 26.9 0.00 1.95 1.40 49 972.1
20260831213553 72 221 7.8 24.3 0.00 1.95 1.40 48 972.3
20260831213058 72 223 12.2 24.3 0.00 1.95 1.40 46 972.4
20260831212552 73 252 7.0 26.9 0.00 1.95 1.40 46 972.4
20260831212056 73 223 11.3 19.1 0.00 1.95 1.40 45 972.3
20260831211602 72 227 4.3 10.4 0.00 1.95 1.40 47 972.0
20260831211051 72 227 5.2 10.4 0.00 1.95 1.40 46 971.9
20260831210551 72 232 3.5 8.7 0.00 1.95 1.40 46 971.8
20260831210050 72 221 4.3 8.7 0.00 1.95 1.40 46 971.8
20260831205550 72 238 2.6 13.0 0.00 1.95 1.40 45 971.9
20260831205050 73 215 4.3 13.0 0.00 1.95 1.40 45 972.0
20260831204554 73 206 3.5 12.2 0.00 1.95 1.40 45 972.1
20260831204050 73 230 6.1 12.2 0.00 1.95 1.40 45 972.1
20260831203550 73 222 6.1 21.7 0.00 1.95 1.40 44 972.2
20260831203050 73 221 7.8 15.6 0.00 1.95 1.40 44 972.4
20260831202551 73 229 6.1 14.8 0.00 1.95 1.40 43 972.4
20260831202048 73 192 7.0 17.4 0.00 1.95 1.40 43 972.2
20260831201548 73 198 7.0 17.4 0.00 1.95 1.40 42 972.2
20260831201049 73 233 6.1 13.0 0.00 1.95 1.40 42 972.2
20260831200547 73 198 5.2 9.6 0.00 1.95 1.40 43 972.4
20260831200053 73 182 4.3 8.7 0.00 1.95 1.40 43 972.6
20260831195544 72 197 2.6 13.9 0.00 1.95 1.40 44 972.7
20260831195044 72 220 7.0 13.9 0.00 1.95 1.40 44 972.8
20260831194544 72 148 4.3 16.5 0.00 1.95 1.40 44 972.8
20260831194043 71 111 7.0 16.5 0.00 1.95 1.40 44 973.0
20260831193543 71 234 3.5 15.6 0.00 1.95 1.40 44 973.1
20260831193045 71 190 2.6 7.0 0.00 1.95 1.40 44 973.1
20260831192542 71 243 1.7 11.3 0.00 1.95 1.40 43 973.2
20260831192045 71 209 3.5 11.3 0.00 1.95 1.40 42 973.3
20260831191542 72 196 4.3 11.3 0.00 1.95 1.40 42 973.4
20260831191042 72 204 4.3 11.3 0.00 1.95 1.40 41 973.4
20260831190542 72 182 5.2 11.3 0.00 1.95 1.40 40 973.6
20260831190100 72 200 5.2 9.6 0.00 1.95 1.40 40 973.5
20260831185542 72 232 4.3 11.3 0.00 1.95 1.40 40 973.7
20260831185041 72 198 7.0 16.5 0.00 1.95 1.40 39 973.6
20260831184542 72 238 7.8 14.8 0.00 1.95 1.40 39 973.8
20260831184041 72 227 6.1 13.9 0.00 1.95 1.40 39 974.1
20260831183541 73 190 4.3 17.4 0.00 1.95 1.40 40 973.8
20260831183041 73 186 7.8 17.4 0.00 1.95 1.40 38 974.0
20260831182541 73 218 8.7 16.5 0.00 1.95 1.40 38 974.1
20260831182040 73 209 4.3 13.0 0.00 1.95 1.40 41 974.1
20260831181540 73 190 6.1 16.5 0.00 1.95 1.40 41 974.2
20260831181040 74 191 7.8 16.5 0.00 1.95 1.40 40 974.2
20260831180538 73 186 8.7 19.1 0.00 1.95 1.40 41 974.4
20260831180046 73 186 7.0 19.1 0.00 1.95 1.40 42 974.4
20260831175537 73 199 8.7 19.1 0.00 1.95 1.40 42 974.5
20260831175037 73 205 5.2 15.6 0.00 1.95 1.40 43 974.7
20260831174540 72 182 7.8 13.0 0.00 1.95 1.40 41 974.9
20260831174036 72 200 6.1 17.4 0.00 1.95 1.40 43 975.1
20260831173534 72 193 7.8 17.4 0.00 1.95 1.40 43 975.1
20260831173035 73 197 7.0 14.8 0.00 1.95 1.40 45 975.1
20260831172535 73 244 7.0 16.5 0.00 1.95 1.40 45 975.3
20260831172034 72 235 7.8 16.5 0.00 1.95 1.40 48 975.4
20260831171534 72 208 4.3 14.8 0.00 1.95 1.40 49 975.4
20260831171033 72 187 4.3 14.8 0.00 1.95 1.40 48 975.5
20260831170532 72 189 5.2 13.9 0.00 1.95 1.40 49 975.5
20260831170031 72 186 6.1 13.9 0.00 1.95 1.40 49 975.6
20260831165535 72 76 5.2 13.9 0.00 1.95 1.40 49 975.7
20260831165031 72 222 5.2 13.9 0.00 1.95 1.40 49 975.7
20260831164545 72 182 5.2 13.0 0.00 1.95 1.40 49 975.7
20260831164030 72 177 4.3 11.3 0.00 1.95 1.40 50 975.8
20260831163529 71 180 6.1 16.5 0.00 1.95 1.40 51 976.0
20260831163028 71 144 8.7 17.4 0.00 1.95 1.40 50 976.0
20260831162527 71 170 6.1 13.0 0.00 1.95 1.40 51 976.1
20260831162026 71 200 5.2 13.0 0.00 1.95 1.40 50 976.2
20260831161525 71 360 6.1 13.0 0.00 1.95 1.40 51 976.1
20260831161025 71 196 6.1 11.3 0.00 1.95 1.40 50 976.3
20260831160524 71 236 4.3 11.3 0.00 1.95 1.40 48 976.3
20260831160023 71 215 5.2 13.9 0.00 1.95 1.40 50 976.3
20260831155524 71 209 2.6 9.6 0.00 1.95 1.40 53 976.2
20260831155021 71 190 3.5 9.6 0.00 1.95 1.40 52 976.3
20260831154519 70 198 4.3 9.6 0.00 1.95 1.40 52 976.3
20260831154020 70 188 3.5 7.8 0.00 1.95 1.40 50 976.2
20260831153517 70 177 2.6 7.0 0.00 1.95 1.40 45 976.3
20260831153014 70 209 3.5 7.0 0.00 1.95 1.40 44 976.3
20260831152515 69 178 2.6 8.7 0.00 1.95 1.40 47 976.4
20260831152012 69 194 5.2 9.6 0.00 1.95 1.40 46 976.6
20260831151512 69 237 3.5 7.8 0.00 1.95 1.40 47 976.5
20260831151009 69 171 3.5 8.7 0.00 1.95 1.40 47 976.5
20260831150510 68 194 3.5 10.4 0.00 1.95 1.40 50 976.8
20260831150009 68 215 3.5 10.4 0.00 1.95 1.40 50 976.7
20260831145504 68 221 3.5 10.4 0.00 1.95 1.40 52 976.7
20260831145002 67 220 6.1 10.4 0.00 1.95 1.40 52 976.7
20260831144505 67 240 4.3 13.0 0.00 1.95 1.40 54 976.5
20260831144100 66 234 7.0 13.0 0.00 1.95 1.40 54 976.6
20260831143559 66 224 6.1 12.2 0.00 1.95 1.40 55 976.6
20260831143103 65 228 2.6 8.7 0.00 1.95 1.40 56 976.6
20260831142556 65 226 3.5 11.3 0.00 1.95 1.40 57 976.5
20260831142058 65 230 5.2 11.3 0.00 1.95 1.40 57 976.5
20260831141603 64 218 1.7 6.1 0.00 1.95 1.40 58 976.5
20260831141053 64 231 3.5 7.0 0.00 1.95 1.40 59 976.7
20260831140550 63 231 2.6 7.0 0.00 1.95 1.40 61 976.7
20260831140052 63 233 2.6 7.0 0.00 1.95 1.40 62 976.6
20260831135551 62 220 1.7 6.1 0.00 1.95 1.40 62 976.6
20260831135050 62 225 2.6 6.1 0.00 1.95 1.40 63 976.4
20260831134554 62 222 0.9 4.3 0.00 1.95 1.40 63 976.5
20260831134049 61 229 0.9 4.3 0.00 1.95 1.40 64 976.4
20260831133549 61 229 1.7 4.3 0.00 1.95 1.40 63 976.5
20260831133049 61 210 2.6 4.3 0.00 1.95 1.40 64 976.4
20260831132549 61 217 1.7 3.5 0.00 1.95 1.40 65 976.3
20260831132049 61 225 0.9 3.5 0.00 1.95 1.40 65 976.4
20260831131552 60 225 0.9 5.2 0.00 1.95 1.40 65 976.4
20260831131048 60 225 1.7 5.2 0.00 1.95 1.40 65 976.4
20260831130548 60 227 2.6 3.5 0.00 1.95 1.40 65 976.4
20260831130049 60 229 0.9 3.5 0.00 1.95 1.40 66 976.3
20260831125549 60 223 0.9 4.3 0.00 1.95 1.40 66 976.3
20260831125048 60 224 1.7 4.3 0.00 1.95 1.40 66 976.3
20260831124549 60 223 0.0 4.3 0.00 1.95 1.40 67 976.3
20260831124048 60 223 0.0 4.3 0.00 1.95 1.40 67 976.2
20260831123547 60 219 1.7 4.3 0.00 1.95 1.40 67 976.2
20260831123047 60 221 0.9 4.3 0.00 1.95 1.40 67 976.2
20260831122549 60 207 1.7 7.8 0.00 1.95 1.40 67 976.2
20260831122047 60 228 3.5 7.8 0.00 1.95 1.40 68 976.2
20260831121547 60 222 1.7 6.1 0.00 1.95 1.40 68 976.0
20260831121046 60 234 2.6 6.1 0.00 1.95 1.40 68 975.9
20260831120546 60 217 1.7 7.8 0.00 1.95 1.40 68 975.9
20260831120045 60 229 2.6 8.7 0.00 1.95 1.40 68 975.9
20260831115544 60 228 5.2 8.7 0.00 1.95 1.40 67 975.8
20260831115044 60 233 6.1 10.4 0.00 1.95 1.40 67 975.7
20260831114544 60 253 7.0 11.3 0.00 1.95 1.40 68 975.6
20260831114043 61 244 6.1 12.2 0.00 1.95 1.40 68 975.6
20260831113542 61 238 7.8 12.2 0.00 1.95 1.40 68 975.5
20260831113041 61 360 7.0 12.2 0.00 1.95 1.40 68 975.5
20260831112545 61 240 7.8 12.2 0.00 1.95 1.40 68 975.4
20260831112039 61 232 5.2 10.4 0.00 1.95 1.40 68 975.6
20260831111551 61 360 6.1 9.6 0.00 1.95 1.40 68 975.5
20260831111037 61 360 4.3 8.7 0.00 1.95 1.40 68 975.5
20260831110538 62 229 4.3 8.7 0.00 1.95 1.40 68 975.4
20260831110045 62 227 5.2 9.6 0.00 1.95 1.40 69 975.4
20260831105536 62 225 5.2 10.4 0.00 1.95 1.40 68 975.4
20260831105035 62 235 6.1 10.4 0.00 1.95 1.40 68 975.3
20260831104549 62 244 5.2 7.0 0.00 1.95 1.40 68 975.2
20260831104036 62 233 4.3 8.7 0.00 1.95 1.40 68 975.1
20260831103535 62 240 4.3 8.7 0.00 1.95 1.40 68 975.1
20260831103036 63 226 4.3 9.6 0.00 1.95 1.40 68 975.1
20260831102532 63 229 5.2 10.4 0.00 1.95 1.40 69 975.1
20260831102032 63 234 7.0 10.4 0.00 1.95 1.40 69 975.0
20260831101534 63 254 7.0 10.4 0.00 1.95 1.40 69 975.0
20260831101030 63 239 5.2 8.7 0.00 1.95 1.40 69 974.9
20260831100529 63 225 3.5 8.7 0.00 1.95 1.40 69 975.0
20260831100028 63 234 2.6 7.0 0.00 1.95 1.40 69 975.1
20260831095527 63 228 4.3 7.0 0.00 1.95 1.40 69 975.0
20260831095030 63 232 4.3 7.0 0.00 1.95 1.40 69 974.9